Voltar ao catálogo

APRIZESAT 5

AtivoComunicaçõesSSO
NORAD 37792·PAYLOAD·🇺🇸 United States

Lançado Aug 17, 2011 de Dombarovsky

Loading…

Próximas Passagens (próximas 24 horas)

TLE

AtualizadoSource: Space-Track

Época: Sep 14, 2026, 18:56 UTC

1 37792U 11044E   26257.78931165  .00000765  00000-0  10329-3 0  9996
2 37792  98.2475 193.3841 0053407  74.4890 286.2210 14.81208024812052

Acompanhe APRIZESAT 5 em tempo real com AllMySat

Download on the App Store